User: anonymous   Login
Location: Unspecified
(0.0000°N, 0.0000°E)
Time: 10:16:22
(UTC+00:00)
Language:

HORYU 4 - Orbit

View from above orbital plane
View from above orbital plane
View from above satellite
View from above satellite

Ground track
Ground track

The orbit data is extracted from the following two-line orbital elements,

1 41340U 16012D   21340.86946377  .00001031  00000-0  69810-4 0  9995
2 41340  31.0034 147.8026 0013545  85.1739 275.0444 15.02203600318731
Epoch (UTC): 06 December 2021 20:52:01
Eccentricity: 0.0013545
inclination: 31.0034°
perigee height: 551 km
apogee height: 569 km
right ascension of ascending node: 147.8026°
argument of perigee: 85.1739°
revolutions per day: 15.02203600
mean anomaly at epoch: 275.0444°
orbit number at epoch: 31873

The dashed part of the orbit path shows where the satellite is in the earth's shadow,  

DLR